Penn Yan, NY

1:34 AM EST on February 07, 2016 (GMT -0500)
Penn Yan

Weather History for KPEO - November, 2012

Change the Weather History Date:

Tuesday, November 27, 2012

  Actual Average (KITH) Record (KITH)
Temperature  
Mean Temperature 36 °F -  
Max Temperature 39 °F 43 °F 63 °F (1979)
Min Temperature 32 °F 28 °F 8 °F (1996)
Degree Days  
Heating Degree Days 30    
Moisture  
Dew Point 20 °F    
Average Humidity 56    
Maximum Humidity 64    
Minimum Humidity 39    
Precipitation  
Precipitation 0.00 in - - ()
Sea Level Pressure  
Sea Level Pressure 30.27 in    
Wind  
Wind Speed 5 mph (West)    
Max Wind Speed 8 mph    
Max Gust Speed -    
Visibility 10 miles    
Events      
Averages and records for this station are not official NWS values.
T = Trace of Precipitation, MM = Missing Value Source: NWS Daily Summary

Daily Weather History Graph

Daily Weather History Graph

Search for Another Location

Airport or City:

Trip Planner

Search our weather history database for the weather conditions in past years. The results will help you decide how hot, cold, wet, or windy it might be!

Date:

Astronomy

Nov. 27, 2012 Rise Set
Actual Time 7:14 AM EST 4:37 PM EST
Civil Twilight 6:43 AM EST 5:08 PM EST
Nautical Twilight 6:08 AM EST 5:43 PM EST
Astronomical Twilight 5:34 AM EST 6:17 PM EST
Moon 4:07 PM EST (11/27) 6:17 AM EST (11/27)
Length of Visible Light 10h 24m
Length of Day
9h 22m
Waxing Gibbous, 99% of the Moon is Illuminated
Nov 27
Waxing Gibbous
Nov 28
Full
Dec 6
Last Quarter
Dec 13
New
Dec 20
First Quarter

Hourly Weather History & Observations

Time (EST) Temp. Windchill Dew Point Humidity Pressure Visibility Wind Dir Wind Speed Gust Speed Precip Events Conditions
12:53 AM 34.0 °F 28.0 °F 23.0 °F 64% 30.23 in 10.0 mi SW 6.9 mph - N/A   Overcast
1:53 AM 33.1 °F 30.0 °F 21.0 °F 61% 30.25 in 10.0 mi WNW 3.5 mph - N/A   Overcast
2:53 AM 33.1 °F 30.0 °F 21.0 °F 61% 30.25 in 10.0 mi West 3.5 mph - N/A   Overcast
3:53 AM 33.1 °F 27.7 °F 21.0 °F 61% 30.25 in 10.0 mi West 5.8 mph - N/A   Overcast
4:53 AM 32.0 °F 25.6 °F 21.0 °F 64% 30.25 in 10.0 mi WSW 6.9 mph - N/A   Overcast
5:53 AM 32.0 °F 26.4 °F 21.0 °F 64% 30.25 in 10.0 mi WSW 5.8 mph - N/A   Overcast
6:53 AM 32.0 °F 26.4 °F 21.0 °F 64% 30.25 in 10.0 mi WSW 5.8 mph - N/A   Overcast
7:53 AM 32.0 °F 26.4 °F 21.0 °F 64% 30.28 in 10.0 mi SW 5.8 mph - N/A   Overcast
8:53 AM 33.1 °F 27.7 °F 21.0 °F 61% 30.29 in 10.0 mi SW 5.8 mph - N/A   Overcast
9:53 AM 34.0 °F 29.8 °F 19.9 °F 56% 30.30 in 10.0 mi WSW 4.6 mph - N/A   Overcast
10:53 AM 36.0 °F 31.1 °F 19.9 °F 52% 30.30 in 10.0 mi Variable 5.8 mph - N/A   Overcast
11:53 AM 37.9 °F 33.5 °F 16.0 °F 41% 30.27 in 10.0 mi NW 5.8 mph - N/A   Partly Cloudy
12:53 PM 36.0 °F 30.3 °F 16.0 °F 44% 30.27 in 10.0 mi NW 6.9 mph - N/A   Partly Cloudy
1:53 PM 39.0 °F 33.4 °F 16.0 °F 39% 30.25 in 10.0 mi WSW 8.1 mph - N/A   Mostly Cloudy
2:53 PM 37.0 °F 32.4 °F 17.1 °F 44% 30.25 in 10.0 mi NW 5.8 mph - N/A   Mostly Cloudy
3:53 PM 36.0 °F 30.3 °F 19.0 °F 50% 30.26 in 10.0 mi NNW 6.9 mph - N/A   Overcast
4:53 PM 35.1 °F 29.3 °F 19.9 °F 54% 30.26 in 10.0 mi NNW 6.9 mph - N/A   Overcast
5:53 PM 34.0 °F 28.8 °F 21.0 °F 59% 30.27 in 10.0 mi NW 5.8 mph - N/A   Overcast
6:53 PM 33.1 °F 27.7 °F 21.0 °F 61% 30.29 in 10.0 mi NW 5.8 mph - N/A   Overcast
7:53 PM 33.1 °F 30.0 °F 21.0 °F 61% 30.29 in 10.0 mi WNW 3.5 mph - N/A   Overcast
8:53 PM 33.1 °F - 18.0 °F 54% 30.29 in 10.0 mi Calm Calm - N/A   Overcast
9:53 PM 33.1 °F - 17.1 °F 52% 30.28 in 10.0 mi Calm Calm - N/A   Overcast
10:53 PM 32.0 °F 28.7 °F 18.0 °F 56% 30.27 in 10.0 mi SW 3.5 mph - N/A   Overcast
11:53 PM 32.0 °F - 18.0 °F 56% 30.25 in 10.0 mi Calm Calm - N/A   Overcast